SL-3 DEB, 14928

Orbit data source: Space-Track

SL-3 DEB, 14928 is space debris in SSO originally from a launch on Sun, 24 Jul 1983 UTC launched from the Tyuratam Missile And Space Complex (TTMTR). Debris objects in space refer to the collection of defunct objects orbiting the Earth. Examples of debris include non-operational satellites, rocket bodies, and fragments generated from explosions, collisions, or faulty payload assembly.

Loading next visibility...
Identifier
14928, 1983-075F
Orbit
SSO
Country
Flag of CISCIS
Related business
Manufacturer
Unknown
Mission
Spacecraft
Bus & Motor
Unknown
Mass
Unknown
Launch date (UTC)
1983-07-24 (43 years ago)
Launch vehicle
Unknown
Launch site
Tyuratam Missile And Space Complex (TTMTR)
Object type
Payload
Rocket body
Debris
Shape & HBR
Unknown shape, 0.1 m
Radar Cross Section
Medium (>0.1 m² and <1 m²)

Expand to show TLE details & history
Last TLE update: 13 hours ago

TLE from 13 hours ago
0 SL-3 DEB
1 14928U 83075F   26266.89387483  .00010076  00000-0  22403-3 0  9997
2 14928  97.8261 236.2805 0018128  54.8338 305.4604 15.43713879334028
Epoch: 2026-09-23T21:27Z
TLE epoch observation values (Epoch: 2026-09-23T21:27:10.785Z)
Latitude
0.00001°
Longitude
-88.2529°
Altitude
431.118 km
Speed
7.657 km/s
True Right ascension
15h 45m 07s
True Declination
0° 00' 00"
Sunlit
Object was in daylight at epoch
Visualization orbit readout
Latitude
Unknown
Longitude
Unknown
Altitude
Unknown
Speed
Unknown
Apparent Right ascension
Unknown
Apparent Declination
Unknown
Sunlit
N/A
Visualization observer readout
Local Sidereal Time
03:30:41
Azimuth
Unknown
Elevation
Unknown
Doppler factor
Unknown
Orbital elements
Apogee altitude
444.458 km
Perigee altitude
419.767 km
Semi-major axis
6,810.25 km
Eccentricity
0.00181
Inclination
97.8261°
RAAN
236.2805°
Arg. of periapsis
54.8338°
True anomaly
305.29098°
Mean anomaly
305.4604°
Eccentric anomaly
305.37571°
Mean motion
3.86188 °/min
Orbital period
93.22 mins
BSTAR
0.00022403

Documentation

Showing up to 5 results
|